Hauptseite
METAR-TAF:

METAR-TAF

Flughäfen :

Bohrplattform

Troll A, Norwegen

Breite: 60-38-42N, Länge: 3-43-29E, Höhe: 20 m

Beobachtung

Neuester Wetterbericht von vor 44 Minuten, um 06:20 UTC
Wind 50 kt aus Nord
Temperatur 4°C
Luftfeuchtigkeit 75%
Luftdruck 982 hPa
Sichtweite: 4800 m
Regenschauer, feuchter Dunst

METAR: ENQA 090620Z AUTO 36050KT 4800NDV -SHRA BR BKN024/// 04/00 Q0982 W06/S7

Zeit: 08:04 (07:04 UTC)


TAF: fehlend

Wetterbeobachtungen und Prognosen von mehr als 4000 Flughäfen (METAR und TAF Bericht).

Die verfügbaren Stationen werden durch gelbe und rote Markierungen auf der Karte dargestellt.

Führen Sie die Maus auf sie, um den Namen der Station zu sehen.

Darauf klicken, um die Beobachtung von Wetterbeobachtungen und Prognosen zu sehen.

Um die Karte zu ändern : klicken Sie auf den grünen Tasten mit einem schwarzen Kreuz Zum Vergrößern, auf den grünen Button mit einem Gedankenstrich zu verkleinern, oder auf die grünen Pfeile für benachbarte Karten.


METAR-TAF: